Location: Warszawa
(52.2322°N, 21.0083°E)
Time: 02:08:44
(UTC+02:00)

ISS - Pass Details

Date: 01 April 2019
Orbit: 408 x 410 km, 51.6° (Epoch: 23 April)

Event Time Altitude Azimuth Distance (km) Brightness Sun altitude
Rises 20:10:25 0° 277° (W) 2,339 1.8 -9.8°
Reaches altitude 10° 20:12:31 10° 275° (W) 1,476 0.4 -10.1°
Maximum altitude 20:15:49 71° 191° (S) 437 -3.8 -10.6°
Enters shadow 20:18:09 18° 109° (ESE) 1,092 -2.3 -10.9°
